Location: Ertl Road
(44.1464°N, 88.2943°W)
Time: 08:58:49
(UTC-06:00)

ISS - Visible Passes

Search period start: 04 March 2024 00:00
Search period end: 14 March 2024 01:00
Orbit: 414 x 422 km, 51.6° (Epoch: 04 March)

Date Brightness Start Highest point End Pass type
(mag) Time Alt. Az. Time Alt. Az. Time Alt. Az.
04 Mar -1.0 03:48:30 19° NE 03:48:30 19° NE 03:49:56 10° ENE visible
04 Mar -3.8 05:21:26 16° WNW 05:24:03 85° SSW 05:27:26 10° SE visible
05 Mar -3.4 04:35:32 54° NNW 04:36:00 63° NNE 04:39:22 10° ESE visible
06 Mar -1.3 03:49:42 22° E 03:49:42 22° E 03:51:09 10° E visible
06 Mar -2.9 05:22:39 18° W 05:24:36 32° SW 05:27:40 10° SSE visible
07 Mar -3.4 04:36:57 51° S 04:36:57 51° S 04:39:55 10° SE visible
08 Mar -0.9 03:51:23 14° ESE 03:51:23 14° ESE 03:51:55 10° ESE visible
08 Mar -1.7 05:24:21 12° WSW 05:24:50 13° SW 05:26:24 10° SSW visible
09 Mar -1.4 04:38:57 13° S 04:38:57 13° S 04:39:30 10° S visible
12 Mar -1.7 19:54:42 10° SSE 19:55:57 12° SE 19:55:57 12° SE visible
13 Mar -3.1 20:41:00 10° SW 20:43:32 42° S 20:43:32 42° S visible
